Terminal Aerodrome Forecast
Issued by NWS

Home | Current Version | Previous Version | Text Only | Print | Product List | Glossary On
Versions: 1 2 3 4 5 6 7 8 9 10 11 12 13 14 15 16 17 18 19 20 21 22 23 24 25 26 27 28 29 30 31 32 33 34 35 36 37 38 39 40 41 42 43 44 45 46 47 48 49 50
410
FTUS41 KCTP 221430 AAA
TAFLNS
TAF AMD
KLNS 221430Z 2215/2312 05004KT 1/4SM FG VV002
     FM221800 08003KT 2SM BR OVC007
     FM230100 06008KT 5SM -RA BR OVC030
     FM230500 08010KT 1SM -RA BR BKN009 OVC015=

USA.gov is the U.S. government's official web portal to all federal, state and local government web resources and services.